DECAYED

OBJECT G, 61233 (Decayed)

Orbit data source: Space-Track

You're viewing an Uncataloged Satellite

Recently launched and/or uncataloged satellites may have evolving metadata. Metadata may include but not limited to: Owner, Maufacturer, Bus, Motor, and Mission.

OBJECT G, 61233 was a Chinese satellite in LEO that was launched on Tue, 24 Sep 2024 UTC via a JIELONG-3 launch vehicle from the Yellow Sea Launch Area, China (YSLA). Unknown objects in Earth's orbit typically refer to objects detected orbiting the Earth but have not yet been identified or cataloged. These objects could be anything from previously untracked satellites, spent rocket stages, debris from satellite collisions, or even natural meteoroids temporarily captured by Earth's gravity. This object's orbit decayed before it could be identified.

Not visible in the next 10 days
Identifier
61233, 2024-173G
Orbit
Decayed
Country
Flag of CNCN / PRC
Related business
None
Manufacturer
Unknown
Mission
Decayed Commercial Technology
Bus & Motor
Unknown
Mass
Unknown
Launch date (UTC)
2024-09-24 (1 year ago)
Launch vehicle
JIELONG-3
Launch site
Yellow Sea Launch Area, China (YSLA)
Object type
Unknown
Shape & HBR
Box + 3 Pan, 0.1 m
Radar Cross Section
0.135 m², Medium (>0.1 m² and < 1m²)

Expand to show TLE details & history
Last TLE update: 2 months ago

TLE from 2 months ago
0 OBJECT G
1 61233U 24173G   25224.01210325  .06881735  24646-5  13114-2 0  9998
2 61233  97.3411 310.8795 0013911 277.0557  82.9156 16.31694691 49823
Epoch: 2025-08-12T00:17Z
TLE epoch observation values (Epoch: 2025-08-12T00:17:25.720Z)
Latitude
-0.00005°
Longitude
-14.18852°
Altitude
190.117 km
Speed
7.793 km/s
True Right ascension
20h 43m 31s
True Declination
0° 00' 00"
Sunlit
Object was in full shadow at epoch
Visualization orbit readout
Latitude
Unknown
Longitude
Unknown
Altitude
Unknown
Speed
Unknown
Apparent Right ascension
Unknown
Apparent Declination
Unknown
Sunlit
N/A
Visualization observer readout
Local Sidereal Time
17:39:16
Azimuth
Unknown
Elevation
Unknown
Doppler factor
Unknown
Orbital elements
Apogee altitude
193.935 km
Perigee altitude
175.675 km
Semi-major axis
6,562.942 km
Eccentricity
0.00139
Inclination
97.3411°
RAAN
310.8795°
Arg. of periapsis
277.0557°
True anomaly
83.07383°
Mean anomaly
82.9156°
Eccentric anomaly
82.99471°
Mean motion
4.08221 °/min
Orbital period
88.19 mins
BSTAR
0.0013114
Loading maneuver chart data...
Computing Atmospheric mass density...
Loading historical data...
Loading historical data...
Loading historical data...
Loading historical data...
Loading historical data...
Loading historical data...
Loading historical data...

Documentation

Showing up to 5 results
|